Starlink 30755

operational
NORAD ID: 58186 Int'l Des: 2023-167 Owner: SPXS Country: US Constellation: starlink
LEOCIRCULAR

关于 Starlink 30755

正在加载描述...

实时位置

正在加载3D地球...

即将过境

高度历史

Altitude vs Time

uPlot chart will show altitude changes over time

两行轨道根数

1 58186U 23167M 26034.19064591 -.00000188 00000-0 11650-5 0 9993
2 58186 43.0057 333.5700 0001225 269.9111 90.1591 15.02538301125763
Epoch: Feb 3, 2026 • Age: 19 hours

当前状态

高度 561.3 km
速度 7.59 km/s
星下点 35.31°N, 115.59°W
发射日期 Oct 30, 2023
运行时间 2.2 years
类型 internet

技术详情

分类 Payload
质量 730.00 kg
干质量 700.00 kg
总质量 730.00 kg
长度 0.30 m
直径 4.10 m
跨度 29.00 m
形状 Box + pan
制造商 SPXS
平台类型 Starlink V2M
阶段状态 In Orbit
所有者/国家 SPXS/US

大型星座

Loading constellations...